This is the latest recevied weather packets stored in our database for station/object KK7ISX. If no packets are shown the sender has not sent any weather packets the latest 1 day(s).
| Time | Temp. | Humidity | Pressure | Rain* | Wind** | Luminosity | Snow |
|---|---|---|---|---|---|---|---|
| 1777981047 | 11.11° C | 66% | 1007.2 hPa | 0 mm | 0.45 m/s, 201° | 0 W/m² | - |
| 1777980743 | 11.11° C | 66% | 1007.3 hPa | 0 mm | 0.89 m/s, 189° | 0 W/m² | - |
| 1777980439 | 11.67° C | 65% | 1007 hPa | 0 mm | 0.45 m/s, 196° | 0 W/m² | - |
| 1777980138 | 11.11° C | 65% | 1007.1 hPa | 0 mm | 0.89 m/s, 207° | 0 W/m² | - |
| 1777979837 | 11.67° C | 65% | 1007.3 hPa | 0 mm | 0 m/s | 0 W/m² | - |
| 1777979533 | 11.67° C | 65% | 1007.2 hPa | 0 mm | 0.45 m/s, 195° | 0 W/m² | - |
| 1777979229 | 11.11° C | 65% | 1006.8 hPa | 0 mm | 1.79 m/s, 219° | 0 W/m² | - |
| 1777978927 | 11.11° C | 65% | 1006.9 hPa | 0 mm | 1.34 m/s, 201° | 0 W/m² | - |
| 1777978623 | 11.11° C | 66% | 1006.9 hPa | 0 mm | 0 m/s | 0 W/m² | - |
| 1777978319 | 11.11° C | 66% | 1006.9 hPa | 0 mm | 0 m/s | 0 W/m² | - |
| 1777978016 | 11.11° C | 65% | 1006.6 hPa | 0 mm | 0 m/s | 0 W/m² | - |
| 1777977713 | 11.67° C | 65% | 1006.6 hPa | 0 mm | 0.89 m/s, 184° | 0 W/m² | - |
| 1777977409 | 11.67° C | 64% | 1006.6 hPa | 0 mm | 0.45 m/s, 181° | 0 W/m² | - |
| 1777977107 | 12.22° C | 62% | 1006.4 hPa | 0 mm | 0.89 m/s, 185° | 0 W/m² | - |
| 1777976804 | 12.78° C | 61% | 1006.4 hPa | 0 mm | 0 m/s | 0 W/m² | - |
| 1777976502 | 13.33° C | 59% | 1006.4 hPa | 0 mm | 0 m/s | 0 W/m² | - |
| 1777976201 | 14.44° C | 55% | 1006.4 hPa | 0 mm | 0 m/s | 0 W/m² | - |
| 1777975897 | 14.44° C | 53% | 1006 hPa | 0 mm | 0.89 m/s, 276° | 0 W/m² | - |
| 1777975593 | 14.44° C | 54% | 1005.9 hPa | 0 mm | 0.45 m/s, 218° | 0 W/m² | - |
| 1777975290 | 14.44° C | 54% | 1005.9 hPa | 0 mm | 0 m/s | 0 W/m² | - |
| 1777974986 | 14.44° C | 53% | 1005.9 hPa | 0 mm | 1.34 m/s, 274° | 0 W/m² | - |
| 1777974683 | 14.44° C | 53% | 1005.9 hPa | 0 mm | 1.34 m/s, 282° | 0 W/m² | - |
| 1777974380 | 15° C | 52% | 1005.7 hPa | 0 mm | 1.34 m/s, 275° | 0 W/m² | - |
| 1777974076 | 15° C | 52% | 1005.8 hPa | 0 mm | 0.89 m/s, 272° | 0 W/m² | - |
| 1777973772 | 15° C | 53% | 1005.6 hPa | 0 mm | 2.24 m/s, 293° | 0 W/m² | - |
* Rain latest hour (hover to see other rain measurements)
** Current wind speed in m/s (hover to see current wind gust speed)